owner,sensor,date,latitude,longitude,vertical_datum,mass_concentration_of_oxygen_in_sea_water,qcFlag 
LUMCON,ioos:station:LUMCON:101:1,2017-05-01T00:00:00Z,29.2533,-90.6633,53.15,3.9,1111122 
LUMCON,ioos:station:LUMCON:101:1,2017-05-01T00:15:00Z,29.2533,-90.6633,53.2,3.91,1111122 
LUMCON,ioos:station:LUMCON:101:1,2017-05-01T00:30:00Z,29.2533,-90.6633,52.44,3.86,1111122 
LUMCON,ioos:station:LUMCON:101:1,2017-05-01T00:45:00Z,29.2533,-90.6633,49.99,3.68,1111122 
LUMCON,ioos:station:LUMCON:101:1,2017-05-01T01:00:00Z,29.2533,-90.6633,49.43,3.64,1111122 
LUMCON,ioos:station:LUMCON:101:1,2017-05-01T01:15:00Z,29.2533,-90.6633,47.63,3.51,1111122 
LUMCON,ioos:station:LUMCON:101:1,2017-05-01T01:30:00Z,29.2533,-90.6633,46.79,3.45,1111122 
LUMCON,ioos:station:LUMCON:101:1,2017-05-01T01:45:00Z,29.2533,-90.6633,45.64,3.37,1111122 
LUMCON,ioos:station:LUMCON:101:1,2017-05-01T02:00:00Z,29.2533,-90.6633,47.95,3.55,1111122 
LUMCON,ioos:station:LUMCON:101:1,2017-05-01T02:15:00Z,29.2533,-90.6633,42.99,3.18,1111122 
LUMCON,ioos:station:LUMCON:101:1,2017-05-01T02:30:00Z,29.2533,-90.6633,42.8,3.17,1111122 
LUMCON,ioos:station:LUMCON:101:1,2017-05-01T02:45:00Z,29.2533,-90.6633,44.27,3.29,1111122 
LUMCON,ioos:station:LUMCON:101:1,2017-05-01T03:00:00Z,29.2533,-90.6633,45.2,3.36,1111122 
LUMCON,ioos:station:LUMCON:101:1,2017-05-01T03:15:00Z,29.2533,-90.6633,43.89,3.27,1111122 
LUMCON,ioos:station:LUMCON:101:1,2017-05-01T03:30:00Z,29.2533,-90.6633,46.01,3.44,1111122 
LUMCON,ioos:station:LUMCON:101:1,2017-05-01T03:45:00Z,29.2533,-90.6633,43.27,3.23,1111122 
LUMCON,ioos:station:LUMCON:101:1,2017-05-01T04:00:00Z,29.2533,-90.6633,44.19,3.31,1111122 
LUMCON,ioos:station:LUMCON:101:1,2017-05-01T04:15:00Z,29.2533,-90.6633,47.07,3.53,1111122 
LUMCON,ioos:station:LUMCON:101:1,2017-05-01T04:30:00Z,29.2533,-90.6633,45.95,3.45,1111122 
LUMCON,ioos:station:LUMCON:101:1,2017-05-01T04:45:00Z,29.2533,-90.6633,46.37,3.49,1111122 
LUMCON,ioos:station:LUMCON:101:1,2017-05-01T05:00:00Z,29.2533,-90.6633,46.41,3.5,1111122 
LUMCON,ioos:station:LUMCON:101:1,2017-05-01T05:15:00Z,29.2533,-90.6633,52.61,3.98,1111122 
LUMCON,ioos:station:LUMCON:101:1,2017-05-01T05:30:00Z,29.2533,-90.6633,51.28,3.88,1111122 
LUMCON,ioos:station:LUMCON:101:1,2017-05-01T05:45:00Z,29.2533,-90.6633,54.67,4.16,1111122 
LUMCON,ioos:station:LUMCON:101:1,2017-05-01T06:00:00Z,29.2533,-90.6633,52.25,3.98,1111122 
LUMCON,ioos:station:LUMCON:101:1,2017-05-01T06:15:00Z,29.2533,-90.6633,52.21,3.99,1111122 
LUMCON,ioos:station:LUMCON:101:1,2017-05-01T06:30:00Z,29.2533,-90.6633,53.28,4.08,1111122 
LUMCON,ioos:station:LUMCON:101:1,2017-05-01T06:45:00Z,29.2533,-90.6633,56.52,4.32,1111122 
LUMCON,ioos:station:LUMCON:101:1,2017-05-01T07:00:00Z,29.2533,-90.6633,54.16,4.16,1111122 
LUMCON,ioos:station:LUMCON:101:1,2017-05-01T07:15:00Z,29.2533,-90.6633,53.55,4.12,1111122 
LUMCON,ioos:station:LUMCON:101:1,2017-05-01T07:30:00Z,29.2533,-90.6633,57.07,4.4,1111122 
LUMCON,ioos:station:LUMCON:101:1,2017-05-01T07:45:00Z,29.2533,-90.6633,55.99,4.33,1111122 
LUMCON,ioos:station:LUMCON:101:1,2017-05-01T08:00:00Z,29.2533,-90.6633,56.64,4.39,1111122 
LUMCON,ioos:station:LUMCON:101:1,2017-05-01T08:15:00Z,29.2533,-90.6633,56.18,4.36,1111122 
LUMCON,ioos:station:LUMCON:101:1,2017-05-01T08:30:00Z,29.2533,-90.6633,57.14,4.44,1111122 
LUMCON,ioos:station:LUMCON:101:1,2017-05-01T08:45:00Z,29.2533,-90.6633,56.71,4.42,1111122 
LUMCON,ioos:station:LUMCON:101:1,2017-05-01T09:00:00Z,29.2533,-90.6633,56.7,4.43,1111122 
LUMCON,ioos:station:LUMCON:101:1,2017-05-01T09:15:00Z,29.2533,-90.6633,57.34,4.49,1111122 
LUMCON,ioos:station:LUMCON:101:1,2017-05-01T09:30:00Z,29.2533,-90.6633,58.28,4.57,1111122 
LUMCON,ioos:station:LUMCON:101:1,2017-05-01T09:45:00Z,29.2533,-90.6633,57.94,4.55,1111122 
LUMCON,ioos:station:LUMCON:101:1,2017-05-01T10:00:00Z,29.2533,-90.6633,57.83,4.54,1111122 
LUMCON,ioos:station:LUMCON:101:1,2017-05-01T10:15:00Z,29.2533,-90.6633,58.78,4.63,1111122 
LUMCON,ioos:station:LUMCON:101:1,2017-05-01T10:30:00Z,29.2533,-90.6633,58.06,4.58,1111122 
LUMCON,ioos:station:LUMCON:101:1,2017-05-01T10:45:00Z,29.2533,-90.6633,60.01,4.74,1111122 
LUMCON,ioos:station:LUMCON:101:1,2017-05-01T11:00:00Z,29.2533,-90.6633,60.03,4.75,1111122 
LUMCON,ioos:station:LUMCON:101:1,2017-05-01T11:15:00Z,29.2533,-90.6633,60.5,4.79,1111122 
LUMCON,ioos:station:LUMCON:101:1,2017-05-01T11:30:00Z,29.2533,-90.6633,60.49,4.79,1111122 
LUMCON,ioos:station:LUMCON:101:1,2017-05-01T11:45:00Z,29.2533,-90.6633,60.04,4.76,1111122 
LUMCON,ioos:station:LUMCON:101:1,2017-05-01T12:00:00Z,29.2533,-90.6633,57.6,4.57,1111122 
LUMCON,ioos:station:LUMCON:101:1,2017-05-01T12:15:00Z,29.2533,-90.6633,59.6,4.73,1111122 
LUMCON,ioos:station:LUMCON:101:1,2017-05-01T12:30:00Z,29.2533,-90.6633,59.61,4.72,1111122 
LUMCON,ioos:station:LUMCON:101:1,2017-05-01T12:45:00Z,29.2533,-90.6633,59.24,4.66,1111122 
LUMCON,ioos:station:LUMCON:101:1,2017-05-01T13:00:00Z,29.2533,-90.6633,58.65,4.63,1111122 
LUMCON,ioos:station:LUMCON:101:1,2017-05-01T13:15:00Z,29.2533,-90.6633,62.73,4.94,1111122 
LUMCON,ioos:station:LUMCON:101:1,2017-05-01T13:30:00Z,29.2533,-90.6633,62.45,4.91,1111122 
LUMCON,ioos:station:LUMCON:101:1,2017-05-01T13:45:00Z,29.2533,-90.6633,65.43,5.13,1111122 
LUMCON,ioos:station:LUMCON:101:1,2017-05-01T14:00:00Z,29.2533,-90.6633,65.91,5.16,1111122 
LUMCON,ioos:station:LUMCON:101:1,2017-05-01T14:15:00Z,29.2533,-90.6633,66.9,5.23,1111122 
LUMCON,ioos:station:LUMCON:101:1,2017-05-01T14:30:00Z,29.2533,-90.6633,67.18,5.24,1111122 
LUMCON,ioos:station:LUMCON:101:1,2017-05-01T14:45:00Z,29.2533,-90.6633,68.13,5.3,1111122 
LUMCON,ioos:station:LUMCON:101:1,2017-05-01T15:00:00Z,29.2533,-90.6633,67.99,5.29,1111122 
LUMCON,ioos:station:LUMCON:101:1,2017-05-01T15:15:00Z,29.2533,-90.6633,68.5,5.32,1111122 
LUMCON,ioos:station:LUMCON:101:1,2017-05-01T15:30:00Z,29.2533,-90.6633,67.37,5.23,1111122 
LUMCON,ioos:station:LUMCON:101:1,2017-05-01T15:45:00Z,29.2533,-90.6633,68.23,5.29,1111122 
LUMCON,ioos:station:LUMCON:101:1,2017-05-01T16:00:00Z,29.2533,-90.6633,69.81,5.39,1111122 
LUMCON,ioos:station:LUMCON:101:1,2017-05-01T16:15:00Z,29.2533,-90.6633,70.31,5.42,1111122 
LUMCON,ioos:station:LUMCON:101:1,2017-05-01T16:30:00Z,29.2533,-90.6633,71.15,5.48,1111122 
LUMCON,ioos:station:LUMCON:101:1,2017-05-01T16:45:00Z,29.2533,-90.6633,70.91,5.45,1111122 
LUMCON,ioos:station:LUMCON:101:1,2017-05-01T17:00:00Z,29.2533,-90.6633,72.07,5.52,1111122 
LUMCON,ioos:station:LUMCON:101:1,2017-05-01T17:15:00Z,29.2533,-90.6633,73.24,5.59,1111122 
LUMCON,ioos:station:LUMCON:101:1,2017-05-01T17:30:00Z,29.2533,-90.6633,74.18,5.65,1111122 
LUMCON,ioos:station:LUMCON:101:1,2017-05-01T17:45:00Z,29.2533,-90.6633,75.14,5.73,1111122 
LUMCON,ioos:station:LUMCON:101:1,2017-05-01T18:00:00Z,29.2533,-90.6633,76.12,5.78,1111122 
LUMCON,ioos:station:LUMCON:101:1,2017-05-01T18:15:00Z,29.2533,-90.6633,77.65,5.88,1111122 
LUMCON,ioos:station:LUMCON:101:1,2017-05-01T18:30:00Z,29.2533,-90.6633,76.94,5.83,1111122 
LUMCON,ioos:station:LUMCON:101:1,2017-05-01T18:45:00Z,29.2533,-90.6633,76.89,5.84,1111122 
LUMCON,ioos:station:LUMCON:101:1,2017-05-01T19:00:00Z,29.2533,-90.6633,77.13,5.87,1111122 
LUMCON,ioos:station:LUMCON:101:1,2017-05-01T19:15:00Z,29.2533,-90.6633,78.32,5.95,1111122 
LUMCON,ioos:station:LUMCON:101:1,2017-05-01T19:30:00Z,29.2533,-90.6633,75.33,5.7,1111122 
LUMCON,ioos:station:LUMCON:101:1,2017-05-01T19:45:00Z,29.2533,-90.6633,74.97,5.67,1111122 
LUMCON,ioos:station:LUMCON:101:1,2017-05-01T20:00:00Z,29.2533,-90.6633,74.51,5.66,1111122 
LUMCON,ioos:station:LUMCON:101:1,2017-05-01T20:15:00Z,29.2533,-90.6633,75.25,5.72,1111122 
LUMCON,ioos:station:LUMCON:101:1,2017-05-01T20:30:00Z,29.2533,-90.6633,74.17,5.64,1111122 
LUMCON,ioos:station:LUMCON:101:1,2017-05-01T20:45:00Z,29.2533,-90.6633,79.03,5.99,1111122 
LUMCON,ioos:station:LUMCON:101:1,2017-05-01T21:00:00Z,29.2533,-90.6633,79.48,6.0,1111122 
LUMCON,ioos:station:LUMCON:101:1,2017-05-01T21:15:00Z,29.2533,-90.6633,82.9,6.22,1111122 
LUMCON,ioos:station:LUMCON:101:1,2017-05-01T21:30:00Z,29.2533,-90.6633,83.9,6.28,1111122 
LUMCON,ioos:station:LUMCON:101:1,2017-05-01T21:45:00Z,29.2533,-90.6633,85.5,6.39,1111122 
LUMCON,ioos:station:LUMCON:101:1,2017-05-01T22:00:00Z,29.2533,-90.6633,84.0,6.28,1111122 
LUMCON,ioos:station:LUMCON:101:1,2017-05-01T22:15:00Z,29.2533,-90.6633,83.7,6.26,1111122 
LUMCON,ioos:station:LUMCON:101:1,2017-05-01T22:30:00Z,29.2533,-90.6633,85.6,6.39,1111122 
LUMCON,ioos:station:LUMCON:101:1,2017-05-01T22:45:00Z,29.2533,-90.6633,85.1,6.34,1111122 
LUMCON,ioos:station:LUMCON:101:1,2017-05-01T23:00:00Z,29.2533,-90.6633,84.7,6.3,1111122 
LUMCON,ioos:station:LUMCON:101:1,2017-05-01T23:15:00Z,29.2533,-90.6633,84.3,6.24,1111122 
LUMCON,ioos:station:LUMCON:101:1,2017-05-01T23:30:00Z,29.2533,-90.6633,83.9,6.22,1111122 
LUMCON,ioos:station:LUMCON:101:1,2017-05-01T23:45:00Z,29.2533,-90.6633,84.4,6.25,1111122 
LUMCON,ioos:station:LUMCON:101:1,2017-05-02T00:00:00Z,29.2533,-90.6633,82.7,6.13,1111122 
LUMCON,ioos:station:LUMCON:101:1,2017-05-02T00:15:00Z,29.2533,-90.6633,80.7,5.98,1111122 
LUMCON,ioos:station:LUMCON:101:1,2017-05-02T00:30:00Z,29.2533,-90.6633,79.15,5.87,1111122 
LUMCON,ioos:station:LUMCON:101:1,2017-05-02T00:45:00Z,29.2533,-90.6633,77.51,5.75,1111122 
LUMCON,ioos:station:LUMCON:101:1,2017-05-02T01:00:00Z,29.2533,-90.6633,75.88,5.62,1111122 
LUMCON,ioos:station:LUMCON:101:1,2017-05-02T01:15:00Z,29.2533,-90.6633,74.78,5.55,1111122 
LUMCON,ioos:station:LUMCON:101:1,2017-05-02T01:30:00Z,29.2533,-90.6633,74.71,5.54,1111122 
LUMCON,ioos:station:LUMCON:101:1,2017-05-02T01:45:00Z,29.2533,-90.6633,72.0,5.35,1111122 
LUMCON,ioos:station:LUMCON:101:1,2017-05-02T02:00:00Z,29.2533,-90.6633,70.96,5.28,1111122 
LUMCON,ioos:station:LUMCON:101:1,2017-05-02T02:15:00Z,29.2533,-90.6633,68.18,5.07,1111122 
LUMCON,ioos:station:LUMCON:101:1,2017-05-02T02:30:00Z,29.2533,-90.6633,68.58,5.11,1111122 
LUMCON,ioos:station:LUMCON:101:1,2017-05-02T02:45:00Z,29.2533,-90.6633,68.44,5.1,1111122 
LUMCON,ioos:station:LUMCON:101:1,2017-05-02T03:00:00Z,29.2533,-90.6633,69.6,5.18,1111122 
LUMCON,ioos:station:LUMCON:101:1,2017-05-02T03:15:00Z,29.2533,-90.6633,71.21,5.31,1111122 
LUMCON,ioos:station:LUMCON:101:1,2017-05-02T03:30:00Z,29.2533,-90.6633,66.21,4.95,1111122 
LUMCON,ioos:station:LUMCON:101:1,2017-05-02T03:45:00Z,29.2533,-90.6633,68.86,5.15,1111122 
LUMCON,ioos:station:LUMCON:101:1,2017-05-02T04:00:00Z,29.2533,-90.6633,68.75,5.15,1111122 
LUMCON,ioos:station:LUMCON:101:1,2017-05-02T04:15:00Z,29.2533,-90.6633,68.4,5.13,1111122 
LUMCON,ioos:station:LUMCON:101:1,2017-05-02T04:30:00Z,29.2533,-90.6633,66.29,4.98,1111122 
LUMCON,ioos:station:LUMCON:101:1,2017-05-02T04:45:00Z,29.2533,-90.6633,66.82,5.03,1111122 
LUMCON,ioos:station:LUMCON:101:1,2017-05-02T05:00:00Z,29.2533,-90.6633,66.76,5.02,1111122 
LUMCON,ioos:station:LUMCON:101:1,2017-05-02T05:15:00Z,29.2533,-90.6633,66.18,4.99,1111122 
LUMCON,ioos:station:LUMCON:101:1,2017-05-02T05:30:00Z,29.2533,-90.6633,66.94,5.06,1111122 
LUMCON,ioos:station:LUMCON:101:1,2017-05-02T05:45:00Z,29.2533,-90.6633,65.17,4.93,1111122 
LUMCON,ioos:station:LUMCON:101:1,2017-05-02T06:00:00Z,29.2533,-90.6633,66.99,5.07,1111122 
LUMCON,ioos:station:LUMCON:101:1,2017-05-02T06:15:00Z,29.2533,-90.6633,67.88,5.15,1111122 
LUMCON,ioos:station:LUMCON:101:1,2017-05-02T06:30:00Z,29.2533,-90.6633,66.77,5.06,1111122 
LUMCON,ioos:station:LUMCON:101:1,2017-05-02T06:45:00Z,29.2533,-90.6633,68.02,5.17,1111122 
LUMCON,ioos:station:LUMCON:101:1,2017-05-02T07:00:00Z,29.2533,-90.6633,67.64,5.13,1111122 
LUMCON,ioos:station:LUMCON:101:1,2017-05-02T07:15:00Z,29.2533,-90.6633,67.26,5.12,1111122 
LUMCON,ioos:station:LUMCON:101:1,2017-05-02T07:30:00Z,29.2533,-90.6633,67.66,5.16,1111122 
LUMCON,ioos:station:LUMCON:101:1,2017-05-02T07:45:00Z,29.2533,-90.6633,67.15,5.13,1111122 
LUMCON,ioos:station:LUMCON:101:1,2017-05-02T08:00:00Z,29.2533,-90.6633,67.49,5.16,1111122 
LUMCON,ioos:station:LUMCON:101:1,2017-05-02T08:15:00Z,29.2533,-90.6633,67.25,5.15,1111122 
LUMCON,ioos:station:LUMCON:101:1,2017-05-02T08:30:00Z,29.2533,-90.6633,67.6,5.16,1111122 
LUMCON,ioos:station:LUMCON:101:1,2017-05-02T08:45:00Z,29.2533,-90.6633,66.71,5.12,1111122 
LUMCON,ioos:station:LUMCON:101:1,2017-05-02T09:00:00Z,29.2533,-90.6633,67.17,5.15,1111122 
LUMCON,ioos:station:LUMCON:101:1,2017-05-02T09:15:00Z,29.2533,-90.6633,67.28,5.15,1111122 
LUMCON,ioos:station:LUMCON:101:1,2017-05-02T09:30:00Z,29.2533,-90.6633,66.13,5.08,1111122 
LUMCON,ioos:station:LUMCON:101:1,2017-05-02T09:45:00Z,29.2533,-90.6633,63.19,4.84,1111122 
LUMCON,ioos:station:LUMCON:101:1,2017-05-02T10:00:00Z,29.2533,-90.6633,62.39,4.79,1111122 
LUMCON,ioos:station:LUMCON:101:1,2017-05-02T10:15:00Z,29.2533,-90.6633,61.45,4.72,1111122 
LUMCON,ioos:station:LUMCON:101:1,2017-05-02T10:30:00Z,29.2533,-90.6633,62.85,4.82,1111122 
LUMCON,ioos:station:LUMCON:101:1,2017-05-02T10:45:00Z,29.2533,-90.6633,61.83,4.75,1111122 
LUMCON,ioos:station:LUMCON:101:1,2017-05-02T11:00:00Z,29.2533,-90.6633,64.33,4.94,1111122 
LUMCON,ioos:station:LUMCON:101:1,2017-05-02T11:15:00Z,29.2533,-90.6633,63.02,4.83,1111122 
LUMCON,ioos:station:LUMCON:101:1,2017-05-02T11:30:00Z,29.2533,-90.6633,63.89,4.9,1111122 
LUMCON,ioos:station:LUMCON:101:1,2017-05-02T11:45:00Z,29.2533,-90.6633,63.93,4.91,1111122 
LUMCON,ioos:station:LUMCON:101:1,2017-05-02T12:00:00Z,29.2533,-90.6633,66.21,5.08,1111122 
LUMCON,ioos:station:LUMCON:101:1,2017-05-02T12:15:00Z,29.2533,-90.6633,66.82,5.12,1111122 
LUMCON,ioos:station:LUMCON:101:1,2017-05-02T12:30:00Z,29.2533,-90.6633,68.81,5.26,1111122 
LUMCON,ioos:station:LUMCON:101:1,2017-05-02T12:45:00Z,29.2533,-90.6633,70.03,5.34,1111122 
LUMCON,ioos:station:LUMCON:101:1,2017-05-02T13:00:00Z,29.2533,-90.6633,70.14,5.35,1111122 
LUMCON,ioos:station:LUMCON:101:1,2017-05-02T13:15:00Z,29.2533,-90.6633,69.66,5.3,1111122 
LUMCON,ioos:station:LUMCON:101:1,2017-05-02T13:30:00Z,29.2533,-90.6633,69.4,5.29,1111122 
LUMCON,ioos:station:LUMCON:101:1,2017-05-02T13:45:00Z,29.2533,-90.6633,70.24,5.35,1111122 
LUMCON,ioos:station:LUMCON:101:1,2017-05-02T14:00:00Z,29.2533,-90.6633,70.82,5.39,1111122 
LUMCON,ioos:station:LUMCON:101:1,2017-05-02T14:15:00Z,29.2533,-90.6633,71.68,5.46,1111122 
LUMCON,ioos:station:LUMCON:101:1,2017-05-02T14:30:00Z,29.2533,-90.6633,72.09,5.49,1111122 
LUMCON,ioos:station:LUMCON:101:1,2017-05-02T14:45:00Z,29.2533,-90.6633,72.48,5.52,1111122 
LUMCON,ioos:station:LUMCON:101:1,2017-05-02T15:00:00Z,29.2533,-90.6633,72.01,5.48,1111122 
LUMCON,ioos:station:LUMCON:101:1,2017-05-02T15:15:00Z,29.2533,-90.6633,73.66,5.61,1111122 
LUMCON,ioos:station:LUMCON:101:1,2017-05-02T15:30:00Z,29.2533,-90.6633,73.49,5.59,1111122 
LUMCON,ioos:station:LUMCON:101:1,2017-05-02T15:45:00Z,29.2533,-90.6633,73.33,5.57,1111122 
LUMCON,ioos:station:LUMCON:101:1,2017-05-02T16:00:00Z,29.2533,-90.6633,74.42,5.65,1111122 
LUMCON,ioos:station:LUMCON:101:1,2017-05-02T16:15:00Z,29.2533,-90.6633,75.78,5.75,1111122 
LUMCON,ioos:station:LUMCON:101:1,2017-05-02T16:30:00Z,29.2533,-90.6633,76.89,5.82,1111122 
LUMCON,ioos:station:LUMCON:101:1,2017-05-02T16:45:00Z,29.2533,-90.6633,77.94,5.89,1111122 
LUMCON,ioos:station:LUMCON:101:1,2017-05-02T17:00:00Z,29.2533,-90.6633,79.77,6.02,1111122 
LUMCON,ioos:station:LUMCON:101:1,2017-05-02T17:15:00Z,29.2533,-90.6633,81.0,6.11,1111122 
LUMCON,ioos:station:LUMCON:101:1,2017-05-02T17:30:00Z,29.2533,-90.6633,79.94,6.02,1111122 
LUMCON,ioos:station:LUMCON:101:1,2017-05-02T17:45:00Z,29.2533,-90.6633,80.8,6.07,1111122 
LUMCON,ioos:station:LUMCON:101:1,2017-05-02T18:00:00Z,29.2533,-90.6633,84.5,6.32,1111122 
LUMCON,ioos:station:LUMCON:101:1,2017-05-02T18:15:00Z,29.2533,-90.6633,85.9,6.43,1111122 
LUMCON,ioos:station:LUMCON:101:1,2017-05-02T18:30:00Z,29.2533,-90.6633,89.1,6.65,1111122 
LUMCON,ioos:station:LUMCON:101:1,2017-05-02T18:45:00Z,29.2533,-90.6633,85.7,6.4,1111122 
LUMCON,ioos:station:LUMCON:101:1,2017-05-02T19:00:00Z,29.2533,-90.6633,87.7,6.53,1111122 
LUMCON,ioos:station:LUMCON:101:1,2017-05-02T19:15:00Z,29.2533,-90.6633,91.3,6.79,1111122 
LUMCON,ioos:station:LUMCON:101:1,2017-05-02T19:30:00Z,29.2533,-90.6633,91.4,6.79,1111122 
LUMCON,ioos:station:LUMCON:101:1,2017-05-02T19:45:00Z,29.2533,-90.6633,97.2,7.21,1111122 
LUMCON,ioos:station:LUMCON:101:1,2017-05-02T20:00:00Z,29.2533,-90.6633,90.3,6.69,1111122 
LUMCON,ioos:station:LUMCON:101:1,2017-05-02T20:15:00Z,29.2533,-90.6633,92.6,6.85,1111122 
LUMCON,ioos:station:LUMCON:101:1,2017-05-02T20:30:00Z,29.2533,-90.6633,83.8,6.18,1111122 
LUMCON,ioos:station:LUMCON:101:1,2017-05-02T20:45:00Z,29.2533,-90.6633,79.21,5.86,1111122 
LUMCON,ioos:station:LUMCON:101:1,2017-05-02T21:00:00Z,29.2533,-90.6633,87.0,6.43,1111122 
LUMCON,ioos:station:LUMCON:101:1,2017-05-02T21:15:00Z,29.2533,-90.6633,86.8,6.41,1111122 
LUMCON,ioos:station:LUMCON:101:1,2017-05-02T21:30:00Z,29.2533,-90.6633,84.7,6.26,1111122 
LUMCON,ioos:station:LUMCON:101:1,2017-05-02T21:45:00Z,29.2533,-90.6633,79.79,5.89,1111122 
LUMCON,ioos:station:LUMCON:101:1,2017-05-02T22:00:00Z,29.2533,-90.6633,91.2,6.72,1111122 
LUMCON,ioos:station:LUMCON:101:1,2017-05-02T22:15:00Z,29.2533,-90.6633,94.6,6.96,1111122 
LUMCON,ioos:station:LUMCON:101:1,2017-05-02T22:30:00Z,29.2533,-90.6633,80.3,5.92,1111122 
LUMCON,ioos:station:LUMCON:101:1,2017-05-02T22:45:00Z,29.2533,-90.6633,77.42,5.7,1111122 
LUMCON,ioos:station:LUMCON:101:1,2017-05-02T23:00:00Z,29.2533,-90.6633,97.8,7.17,1111122 
LUMCON,ioos:station:LUMCON:101:1,2017-05-02T23:15:00Z,29.2533,-90.6633,100.3,7.35,1111122 
LUMCON,ioos:station:LUMCON:101:1,2017-05-02T23:30:00Z,29.2533,-90.6633,93.5,6.86,1111122 
LUMCON,ioos:station:LUMCON:101:1,2017-05-02T23:45:00Z,29.2533,-90.6633,84.3,6.2,1111122 
LUMCON,ioos:station:LUMCON:101:1,2017-05-03T00:00:00Z,29.2533,-90.6633,82.3,6.03,1111122 
LUMCON,ioos:station:LUMCON:101:1,2017-05-03T00:15:00Z,29.2533,-90.6633,87.8,6.46,1111122 
LUMCON,ioos:station:LUMCON:101:1,2017-05-03T00:30:00Z,29.2533,-90.6633,94.6,6.95,1111122 
LUMCON,ioos:station:LUMCON:101:1,2017-05-03T00:45:00Z,29.2533,-90.6633,99.9,7.34,1111122 
LUMCON,ioos:station:LUMCON:101:1,2017-05-03T01:00:00Z,29.2533,-90.6633,97.0,7.16,1111122 
LUMCON,ioos:station:LUMCON:101:1,2017-05-03T01:15:00Z,29.2533,-90.6633,98.2,7.28,1111122 
LUMCON,ioos:station:LUMCON:101:1,2017-05-03T01:30:00Z,29.2533,-90.6633,95.3,7.09,1111122 
LUMCON,ioos:station:LUMCON:101:1,2017-05-03T01:45:00Z,29.2533,-90.6633,92.8,6.91,1111122 
LUMCON,ioos:station:LUMCON:101:1,2017-05-03T02:00:00Z,29.2533,-90.6633,88.3,6.58,1111122 
LUMCON,ioos:station:LUMCON:101:1,2017-05-03T02:15:00Z,29.2533,-90.6633,85.8,6.38,1111122 
LUMCON,ioos:station:LUMCON:101:1,2017-05-03T02:30:00Z,29.2533,-90.6633,84.9,6.32,1111122 
LUMCON,ioos:station:LUMCON:101:1,2017-05-03T02:45:00Z,29.2533,-90.6633,83.6,6.22,1111122 
LUMCON,ioos:station:LUMCON:101:1,2017-05-03T03:00:00Z,29.2533,-90.6633,82.4,6.14,1111122 
LUMCON,ioos:station:LUMCON:101:1,2017-05-03T03:15:00Z,29.2533,-90.6633,81.8,6.1,1111122 
LUMCON,ioos:station:LUMCON:101:1,2017-05-03T03:30:00Z,29.2533,-90.6633,81.3,6.07,1111122 
LUMCON,ioos:station:LUMCON:101:1,2017-05-03T03:45:00Z,29.2533,-90.6633,78.65,5.88,1111122 
LUMCON,ioos:station:LUMCON:101:1,2017-05-03T04:00:00Z,29.2533,-90.6633,78.76,5.89,1111122 
LUMCON,ioos:station:LUMCON:101:1,2017-05-03T04:15:00Z,29.2533,-90.6633,76.94,5.76,1111122 
LUMCON,ioos:station:LUMCON:101:1,2017-05-03T04:30:00Z,29.2533,-90.6633,74.82,5.61,1111122 
LUMCON,ioos:station:LUMCON:101:1,2017-05-03T04:45:00Z,29.2533,-90.6633,73.18,5.49,1111122 
LUMCON,ioos:station:LUMCON:101:1,2017-05-03T05:00:00Z,29.2533,-90.6633,73.13,5.49,1111122 
LUMCON,ioos:station:LUMCON:101:1,2017-05-03T05:15:00Z,29.2533,-90.6633,70.79,5.32,1111122 
LUMCON,ioos:station:LUMCON:101:1,2017-05-03T05:30:00Z,29.2533,-90.6633,69.93,5.26,1111122 
LUMCON,ioos:station:LUMCON:101:1,2017-05-03T05:45:00Z,29.2533,-90.6633,70.69,5.33,1111122 
LUMCON,ioos:station:LUMCON:101:1,2017-05-03T06:00:00Z,29.2533,-90.6633,69.19,5.22,1111122 
LUMCON,ioos:station:LUMCON:101:1,2017-05-03T06:15:00Z,29.2533,-90.6633,68.39,5.17,1111122 
LUMCON,ioos:station:LUMCON:101:1,2017-05-03T06:30:00Z,29.2533,-90.6633,68.15,5.15,1111122 
LUMCON,ioos:station:LUMCON:101:1,2017-05-03T06:45:00Z,29.2533,-90.6633,69.9,5.29,1111122 
LUMCON,ioos:station:LUMCON:101:1,2017-05-03T07:00:00Z,29.2533,-90.6633,67.54,5.12,1111122 
LUMCON,ioos:station:LUMCON:101:1,2017-05-03T07:15:00Z,29.2533,-90.6633,69.81,5.29,1111122 
LUMCON,ioos:station:LUMCON:101:1,2017-05-03T07:30:00Z,29.2533,-90.6633,69.78,5.3,1111122 
LUMCON,ioos:station:LUMCON:101:1,2017-05-03T07:45:00Z,29.2533,-90.6633,68.76,5.23,1111122 
LUMCON,ioos:station:LUMCON:101:1,2017-05-03T08:00:00Z,29.2533,-90.6633,66.89,5.09,1111122 
LUMCON,ioos:station:LUMCON:101:1,2017-05-03T08:15:00Z,29.2533,-90.6633,70.31,5.34,1111122 
LUMCON,ioos:station:LUMCON:101:1,2017-05-03T08:30:00Z,29.2533,-90.6633,68.29,5.2,1111122 
LUMCON,ioos:station:LUMCON:101:1,2017-05-03T08:45:00Z,29.2533,-90.6633,67.86,5.17,1111122 
LUMCON,ioos:station:LUMCON:101:1,2017-05-03T09:00:00Z,29.2533,-90.6633,65.04,4.96,1111122 
LUMCON,ioos:station:LUMCON:101:1,2017-05-03T09:15:00Z,29.2533,-90.6633,68.14,5.21,1111122 
LUMCON,ioos:station:LUMCON:101:1,2017-05-03T09:30:00Z,29.2533,-90.6633,69.17,5.28,1111122 
LUMCON,ioos:station:LUMCON:101:1,2017-05-03T09:45:00Z,29.2533,-90.6633,67.74,5.19,1111122 
LUMCON,ioos:station:LUMCON:101:1,2017-05-03T10:00:00Z,29.2533,-90.6633,67.72,5.21,1111122 
LUMCON,ioos:station:LUMCON:101:1,2017-05-03T10:15:00Z,29.2533,-90.6633,63.7,4.88,1111122 
LUMCON,ioos:station:LUMCON:101:1,2017-05-03T10:30:00Z,29.2533,-90.6633,60.2,4.62,1111122 
LUMCON,ioos:station:LUMCON:101:1,2017-05-03T10:45:00Z,29.2533,-90.6633,65.16,4.99,1111122 
LUMCON,ioos:station:LUMCON:101:1,2017-05-03T11:00:00Z,29.2533,-90.6633,69.56,5.33,1111122 
LUMCON,ioos:station:LUMCON:101:1,2017-05-03T11:15:00Z,29.2533,-90.6633,68.24,5.23,1111122 
LUMCON,ioos:station:LUMCON:101:1,2017-05-03T11:30:00Z,29.2533,-90.6633,67.29,5.16,1111122 
LUMCON,ioos:station:LUMCON:101:1,2017-05-03T11:45:00Z,29.2533,-90.6633,69.67,5.33,1111122 
LUMCON,ioos:station:LUMCON:101:1,2017-05-03T12:00:00Z,29.2533,-90.6633,70.0,5.36,1111122 
LUMCON,ioos:station:LUMCON:101:1,2017-05-03T12:15:00Z,29.2533,-90.6633,70.55,5.41,1111122 
LUMCON,ioos:station:LUMCON:101:1,2017-05-03T12:30:00Z,29.2533,-90.6633,70.37,5.39,1111122 
LUMCON,ioos:station:LUMCON:101:1,2017-05-03T12:45:00Z,29.2533,-90.6633,72.56,5.55,1111122 
LUMCON,ioos:station:LUMCON:101:1,2017-05-03T13:00:00Z,29.2533,-90.6633,74.65,5.71,1111122 
LUMCON,ioos:station:LUMCON:101:1,2017-05-03T13:15:00Z,29.2533,-90.6633,73.98,5.64,1111122 
LUMCON,ioos:station:LUMCON:101:1,2017-05-03T13:30:00Z,29.2533,-90.6633,76.24,5.8,1111122 
LUMCON,ioos:station:LUMCON:101:1,2017-05-03T13:45:00Z,29.2533,-90.6633,76.1,5.79,1111122 
LUMCON,ioos:station:LUMCON:101:1,2017-05-03T14:00:00Z,29.2533,-90.6633,76.18,5.8,1111122 
LUMCON,ioos:station:LUMCON:101:1,2017-05-03T14:15:00Z,29.2533,-90.6633,78.27,5.95,1111122 
LUMCON,ioos:station:LUMCON:101:1,2017-05-03T14:30:00Z,29.2533,-90.6633,77.57,5.9,1111122 
LUMCON,ioos:station:LUMCON:101:1,2017-05-03T14:45:00Z,29.2533,-90.6633,80.4,6.12,1111122 
LUMCON,ioos:station:LUMCON:101:1,2017-05-03T15:00:00Z,29.2533,-90.6633,81.4,6.2,1111122 
LUMCON,ioos:station:LUMCON:101:1,2017-05-03T15:15:00Z,29.2533,-90.6633,82.9,6.32,1111122 
LUMCON,ioos:station:LUMCON:101:1,2017-05-03T15:30:00Z,29.2533,-90.6633,83.2,6.35,1111122 
LUMCON,ioos:station:LUMCON:101:1,2017-05-03T15:45:00Z,29.2533,-90.6633,85.0,6.5,1111122 
LUMCON,ioos:station:LUMCON:101:1,2017-05-03T16:00:00Z,29.2533,-90.6633,84.2,6.44,1111122 
LUMCON,ioos:station:LUMCON:101:1,2017-05-03T16:15:00Z,29.2533,-90.6633,85.1,6.5,1111122 
LUMCON,ioos:station:LUMCON:101:1,2017-05-03T16:30:00Z,29.2533,-90.6633,83.5,6.39,1111122 
LUMCON,ioos:station:LUMCON:101:1,2017-05-03T16:45:00Z,29.2533,-90.6633,84.7,6.49,1111122 
LUMCON,ioos:station:LUMCON:101:1,2017-05-03T17:00:00Z,29.2533,-90.6633,85.8,6.58,1111122 
LUMCON,ioos:station:LUMCON:101:1,2017-05-03T17:15:00Z,29.2533,-90.6633,86.1,6.61,1111122 
LUMCON,ioos:station:LUMCON:101:1,2017-05-03T17:30:00Z,29.2533,-90.6633,86.1,6.6,1111122 